Flag for China Weather past 2 weeks in Shenzhen, Guangdong, China

Now
86 °F

Passing clouds.


Feels Like: 95 °F
Forecast: 81 / 89 °F
Wind: 10 mph from East

Location: Shenzhen Airport

Current Time: Aug 27, 2014 at 11:40:40 PM

Latest Report: Aug 27, 2014 at 11:00 PM


Visibility: N/A

Pressure: 29.86 "Hg

Humidity: 70%

Dew point: 75 °F

Location of ShenzhenLocation

Historic Weather in Shenzhen — Graph

°F

Shenzhen temperature yesterday

Maximum temperature yesterday: 90 °F (at 2:00 PM)
Minimum temperature yesterday: 81 °F (at 5:00 AM)
Average temperature yesterday: 86 °F

Past Weeks' High & Low Weather Summary

 TemperatureHumidityPressure
High93 °F (Aug 27, 2:00 PM)100% (Aug 13, 4:00 AM)29.89 "Hg (Aug 13, 4:00 AM)
Low77 °F (Aug 13, 4:00 AM)56% (Aug 27, 11:00 AM)29.53 "Hg (Aug 13, 3:00 AM)
Average84 °F81%29.78 "Hg
* Reported Aug 12 10:00 PM — Aug 27 10:00 PM, Shenzhen, Weather by CustomWeather, © 2014

Note: Actual official high and low records may vary slightly from our data, if they occured in-between our weather recording intervals... More about our weather records

Advertising

Shenzhen weather history for previous 24 hours

 ConditionsComfort  
Time TempWeatherWind HumidityBarometerVisibility
10:00 PM
Aug 27
86 °FPassing clouds.13 mph70%29.86 "HgN/A
9:00 PM86 °FPassing clouds.15 mph70%29.83 "HgN/A
8:00 PM88 °FPassing clouds.13 mph66%29.83 "HgN/A
7:00 PM88 °FPassing clouds.13 mph66%29.80 "HgN/A
6:00 PM90 °FPassing clouds.20 mph63%29.80 "HgN/A
5:00 PM91 °FPassing clouds.20 mph59%29.77 "HgN/A
4:00 PM91 °FPassing clouds.20 mph59%29.80 "HgN/A
3:00 PM91 °FPassing clouds.15 mph59%29.80 "HgN/A
2:00 PM93 °FScattered clouds.10 mph56%29.83 "HgN/A
1:00 PM91 °FPartly sunny.13 mph59%29.83 "HgN/A
12:00 PM91 °FPartly sunny.10 mph59%29.83 "HgN/A
11:00 AM91 °FPassing clouds.13 mph56%29.86 "HgN/A
10:00 AM90 °FSunny.10 mph59%29.83 "Hg10 mi
9:00 AM88 °FPassing clouds.10 mph62%29.86 "HgN/A
8:00 AM86 °FPassing clouds.10 mph66%29.83 "HgN/A
7:00 AM84 °FPassing clouds.6 mph74%29.83 "HgN/A
6:00 AM82 °FPassing clouds.3 mph84%29.80 "HgN/A
5:00 AM82 °FPassing clouds.6 mph84%29.80 "HgN/A
4:00 AM82 °FPassing clouds.6 mph84%29.80 "HgN/A
3:00 AM84 °FPassing clouds.6 mph79%29.80 "HgN/A
2:00 AM84 °FPassing clouds.6 mph74%29.83 "HgN/A
1:00 AM84 °FPassing clouds.6 mph79%29.83 "HgN/A
12:00 AM84 °FPassing clouds.6 mph74%29.86 "HgN/A
11:00 PM
Aug 26
86 °FPassing clouds.6 mph70%29.86 "HgN/A
Weather by CustomWeather, © 2014

See weather overviewHow to use our weather pages